Change the Weather History Date:

Monday, March 18, 2013

  Actual Average Record
Temperature  
Mean Temperature 67 °F 56 °F  
Max Temperature 78 °F 67 °F 87 °F (1982)
Min Temperature 55 °F 45 °F 24 °F (1962)
Degree Days  
Heating Degree Days 0 9  
Month to date heating degree days 258 205  
Since 1 July heating degree days 2080 2334  
Cooling Degree Days 2 0  
Month to date cooling degree days 2 0  
Year to date cooling degree days 9 4  
Growing Degree Days 15 (Base 50)    
Moisture  
Dew Point 56 °F    
Average Humidity 77    
Maximum Humidity 93    
Minimum Humidity 60    
Precipitation  
Precipitation 0.09 in 0.14 in 1.83 in (1969)
Month to date precipitation 1.09 2.74  
Year to date precipitation 16.58 13.82  
Snow  
Snow 0.00 in - - ()
Month to date snowfall T  
Since 1 July snowfall 0.9  
Snow Depth 0.00 in    
Sea Level Pressure  
Sea Level Pressure 29.86 in    
Wind  
Wind Speed 8 mph (South)    
Max Wind Speed 37 mph    
Max Gust Speed 51 mph    
Visibility 6 miles    
Events Rain , Thunderstorm    
T = Trace of Precipitation, MM = Missing Value Source: NWS Daily Summary

Daily Weather History Graph

Daily Weather History Graph

Search for Another Location

Airport or City:

Trip Planner

Search our weather history database for the weather conditions in past years. The results will help you decide how hot, cold, wet, or windy it might be!

Date:

Astronomy

Mar. 18, 2013 Rise Set
Actual Time 6:53 AM CDT 6:57 PM CDT
Civil Twilight 6:28 AM CDT 7:22 PM CDT
Nautical Twilight 5:59 AM CDT 7:50 PM CDT
Astronomical Twilight 5:30 AM CDT 8:20 PM CDT
Moon 11:09 AM CDT (3/18) 12:39 AM CDT (3/18)
Length of Visible Light 12h 53m
Length of Day
12h 04m
Waxing Crescent, 41% of the Moon is Illuminated
Mar 18
Waxing Crescent
Mar 19
First Quarter
Mar 27
Full
Apr 2
Last Quarter
Apr 10
New

Hourly Weather History & Observations

Time (CDT) Temp. Dew Point Humidity Pressure Visibility Wind Dir Wind Speed Gust Speed Precip Events Conditions
12:53 AM 62.1 °F 57.9 °F 86% 29.89 in 6.0 mi SSE 8.1 mph - N/A   Scattered Clouds
1:12 AM 62.6 °F 57.2 °F 82% 29.91 in 6.0 mi South 6.9 mph - N/A   Mostly Cloudy
1:53 AM 62.1 °F 57.9 °F 86% 29.89 in 7.0 mi South 9.2 mph 16.1 mph N/A   Overcast
2:53 AM 61.0 °F 57.0 °F 87% 29.91 in 7.0 mi South 9.2 mph - N/A   Mostly Cloudy
3:10 AM 60.8 °F 57.2 °F 88% 29.92 in 7.0 mi South 8.1 mph - N/A   Overcast
3:53 AM 61.0 °F 55.9 °F 83% 29.89 in 8.0 mi SSE 8.1 mph - N/A   Mostly Cloudy
4:53 AM 61.0 °F 55.9 °F 83% 29.88 in 8.0 mi SSE 6.9 mph - N/A   Overcast
5:44 AM 60.8 °F 57.2 °F 88% 29.90 in 7.0 mi South 5.8 mph - N/A   Overcast
5:53 AM 61.0 °F 57.0 °F 87% 29.89 in 7.0 mi South 6.9 mph - N/A   Overcast
6:53 AM 61.0 °F 57.0 °F 87% 29.91 in 7.0 mi SSE 8.1 mph - N/A   Overcast
7:53 AM 61.0 °F 57.0 °F 87% 29.89 in 6.0 mi SSE 9.2 mph - N/A   Overcast
8:53 AM 62.1 °F 57.0 °F 84% 29.90 in 5.0 mi South 10.4 mph - N/A   Haze
9:33 AM 62.6 °F 57.2 °F 82% 29.91 in 4.0 mi South 8.1 mph - 0.00 in Rain Light Rain
9:53 AM 63.0 °F 57.0 °F 81% 29.90 in 5.0 mi South 8.1 mph - 0.00 in   Haze
10:31 AM 62.6 °F 57.2 °F 82% 29.90 in 2.5 mi South 10.4 mph 17.3 mph 0.00 in Rain Light Rain
10:38 AM 62.6 °F 57.2 °F 82% 29.90 in 6.0 mi South 10.4 mph 16.1 mph 0.00 in   Haze
10:53 AM 64.0 °F 57.9 °F 80% 29.89 in 6.0 mi South 8.1 mph 19.6 mph 0.00 in   Haze
11:53 AM 68.0 °F 59.0 °F 73% 29.85 in 7.0 mi South 11.5 mph - N/A   Overcast
12:53 PM 70.0 °F 60.1 °F 71% 29.82 in 7.0 mi SSW 11.5 mph 17.3 mph N/A   Overcast
1:43 PM 73.4 °F 62.6 °F 69% 29.80 in 7.0 mi SSW 10.4 mph 21.9 mph N/A   Mostly Cloudy
1:53 PM 73.9 °F 61.0 °F 64% 29.79 in 7.0 mi SSW 11.5 mph - N/A   Mostly Cloudy
2:53 PM 75.9 °F 60.1 °F 58% 29.78 in 7.0 mi SW 12.7 mph 25.3 mph N/A   Partly Cloudy
3:53 PM 66.9 °F 54.0 °F 63% 29.83 in 4.0 mi NNW 27.6 mph 50.6 mph 0.01 in Rain Light Rain
3:59 PM 60.8 °F 51.8 °F 72% 29.86 in 2.5 mi NNW 23.0 mph 50.6 mph 0.02 in Rain , Thunderstorm Light Thunderstorms and Rain
4:07 PM 57.2 °F 51.8 °F 82% 29.87 in 1.8 mi NNW 19.6 mph 35.7 mph 0.04 in Rain , Thunderstorm Light Thunderstorms and Rain
4:10 PM 57.2 °F 51.8 °F 82% 29.87 in 3.0 mi NNW 16.1 mph 34.5 mph 0.04 in Rain , Thunderstorm Light Thunderstorms and Rain
4:22 PM 57.2 °F 53.6 °F 88% 29.85 in 1.8 mi North 15.0 mph 24.2 mph 0.07 in Rain , Thunderstorm Thunderstorms and Rain
4:29 PM 57.2 °F 53.6 °F 88% 29.85 in 3.0 mi North 10.4 mph 24.2 mph 0.07 in Rain , Thunderstorm Light Thunderstorms and Rain
4:53 PM 59.0 °F 54.0 °F 83% 29.83 in 10.0 mi NNW 10.4 mph - 0.07 in   Scattered Clouds
5:53 PM 59.0 °F 54.0 °F 83% 29.78 in 10.0 mi SE 3.5 mph - N/A   Clear
6:53 PM 59.0 °F 54.0 °F 83% 29.78 in 10.0 mi Calm Calm - N/A   Clear
7:53 PM 57.9 °F 54.0 °F 87% 29.82 in 10.0 mi Calm Calm - N/A   Clear
8:53 PM 55.9 °F 54.0 °F 93% 29.84 in 8.0 mi Calm Calm - N/A   Clear
9:53 PM 55.9 °F 54.0 °F 93% 29.88 in 8.0 mi Calm Calm - N/A   Overcast
11:53 PM 57.9 °F 53.1 °F 84% 29.89 in 9.0 mi North 6.9 mph - N/A   Mostly Cloudy